Rochester, Indiana, United States (46975)
Lat: 41.06N, Lon: 86.22W
Wx Zone: INZ015
Local Info
Past Weather Observations for Today

NOTE: This archive is for the closest National Weather Service station to Rochester. Information may differ from the station used for current weather conditions.

Click here for Long-term Archive

Time Weather Temperature Dewpoint Humidity Pressure Winds Precip Visibility
15:55
Mostly Cloudy
63°F / 17°C 52°F / 11°C 68% 30.01 in
(1016 mb)
SW 6.9 mph
(SW 11 kph)
- 10SM
15:35
Partly Cloudy
63°F / 17°C 52°F / 11°C 68% 30.01 in
(1016 mb)
SSW 5.8 mph
(SSW 9 kph)
- 10SM
15:15
Mostly Cloudy
63°F / 17°C 50°F / 10°C 64% 30.01 in
(1016 mb)
SW 6.9 mph
(SW 11 kph)
- 10SM
14:55
Overcast
63°F / 17°C 52°F / 11°C 68% 30.01 in
(1016 mb)
SSW 6.9 mph
(SSW 11 kph)
- 10SM
14:35
Mostly Cloudy
64°F / 18°C 52°F / 11°C 64% 30.01 in
(1016 mb)
SW 4.6 mph
(SW 7 kph)
- 10SM
14:15
Mostly Cloudy
63°F / 17°C 50°F / 10°C 64% 30.01 in
(1016 mb)
SW 3.5 mph
(SW 6 kph)
- 10SM
13:55
Partly Cloudy
63°F / 17°C 50°F / 10°C 64% 30.01 in
(1016 mb)
SW 3.5 mph
(SW 6 kph)
- 10SM
13:35
Clear
63°F / 17°C 50°F / 10°C 64% 30.01 in
(1016 mb)
SSE 5.8 mph
(SSE 9 kph)
- 10SM
13:15
Clear
61°F / 16°C 50°F / 10°C 68% 30.04 in
(1017 mb)
Calm - 10SM
12:55
Clear
61°F / 16°C 48°F / 9°C 63% 30.04 in
(1017 mb)
S 3.5 mph
(S 6 kph)
- 10SM
12:35
Partly Cloudy
59°F / 15°C 48°F / 9°C 68% 30.06 in
(1018 mb)
Calm - 10SM
12:15
Overcast
59°F / 15°C 48°F / 9°C 68% 30.06 in
(1018 mb)
Calm - 10SM
11:55
Overcast
59°F / 15°C 50°F / 10°C 72% 30.06 in
(1018 mb)
SSW 3.5 mph
(SSW 6 kph)
- 10SM
11:35
Overcast
57°F / 14°C 50°F / 10°C 77% 30.09 in
(1019 mb)
Calm - 10SM
11:15
Overcast
55°F / 13°C 50°F / 10°C 82% 30.09 in
(1019 mb)
SSW 4.6 mph
(SSW 7 kph)
- 10SM
10:55
Overcast
54°F / 12°C 50°F / 10°C 88% 30.09 in
(1019 mb)
SSW 6.9 mph
(SSW 11 kph)
- 10SM
10:35
Overcast
54°F / 12°C 48°F / 9°C 82% 30.09 in
(1019 mb)
SW 3.5 mph
(SW 6 kph)
- 7SM
10:15
Overcast
52°F / 11°C 46°F / 8°C 82% 30.09 in
(1019 mb)
SW 3.5 mph
(SW 6 kph)
- 7SM
09:55
Overcast
50°F / 10°C 46°F / 8°C 88% 30.09 in
(1019 mb)
Calm - 7SM
09:35
Overcast
50°F / 10°C 46°F / 8°C 88% 30.09 in
(1019 mb)
Calm - 7SM
09:15
Overcast
Fog And Mist
50°F / 10°C 46°F / 8°C 88% 30.09 in
(1019 mb)
Calm - 5SM
08:55
Overcast
Fog And Mist
48°F / 9°C 46°F / 8°C 94% 30.09 in
(1019 mb)
SSW 4.6 mph
(SSW 7 kph)
- 5SM
08:35
Overcast
Fog And Mist
48°F / 9°C 46°F / 8°C 94% 30.09 in
(1019 mb)
SSW 3.5 mph
(SSW 6 kph)
- 4SM
08:15
Overcast
Fog And Mist
46°F / 8°C 46°F / 8°C 100% 30.09 in
(1019 mb)
Calm - 4SM
07:55
Overcast
Fog And Mist
46°F / 8°C 45°F / 7°C 93% 30.09 in
(1019 mb)
Calm - 3SM
07:35
Overcast
Fog And Mist
45°F / 7°C 45°F / 7°C 100% 30.09 in
(1019 mb)
Calm - 2 1/2SM
07:15
Overcast
Fog And Mist
45°F / 7°C 45°F / 7°C 100% 30.09 in
(1019 mb)
Calm - 5SM
06:55
Overcast
Fog And Mist
45°F / 7°C 45°F / 7°C 100% 30.09 in
(1019 mb)
Calm - 5SM
06:35
Overcast
Light Rain
45°F / 7°C 43°F / 6°C 93% 30.09 in
(1019 mb)
Calm - 5SM
06:15
Overcast
Rain
45°F / 7°C 43°F / 6°C 93% 30.09 in
(1019 mb)
Calm - 5SM
05:55
Overcast
Light Rain
45°F / 7°C 41°F / 5°C 87% 30.09 in
(1019 mb)
Calm - 7SM
05:35
Overcast
45°F / 7°C 41°F / 5°C 87% 30.09 in
(1019 mb)
Calm - 10SM
05:15
Overcast
43°F / 6°C 41°F / 5°C 93% 30.09 in
(1019 mb)
Calm - 10SM
04:55
Mostly Cloudy
43°F / 6°C 41°F / 5°C 93% 30.09 in
(1019 mb)
Calm - 7SM
04:35
Mostly Cloudy
43°F / 6°C 41°F / 5°C 93% 30.09 in
(1019 mb)
Calm - 7SM
04:15
Partly Cloudy
41°F / 5°C 39°F / 4°C 93% 30.09 in
(1019 mb)
Calm - 7SM
03:55
Mostly Cloudy
41°F / 5°C 39°F / 4°C 93% 30.06 in
(1018 mb)
Calm - 7SM
03:35
Partly Cloudy
Fog And Mist
37°F / 3°C 37°F / 3°C 100% 30.06 in
(1018 mb)
Calm - 5SM
03:15
Mostly Cloudy
Fog And Mist
39°F / 4°C 37°F / 3°C 93% 30.09 in
(1019 mb)
Calm - 5SM
02:55
Overcast
Fog And Mist
39°F / 4°C 37°F / 3°C 93% 30.09 in
(1019 mb)
Calm - 5SM
02:35
Overcast
Fog And Mist
37°F / 3°C 37°F / 3°C 100% 30.09 in
(1019 mb)
Calm - 5SM
02:15
Mostly Cloudy
Fog And Mist
37°F / 3°C 37°F / 3°C 100% 30.09 in
(1019 mb)
Calm - 5SM
01:55
Clear
Fog And Mist
37°F / 3°C 36°F / 2°C 93% 30.09 in
(1019 mb)
Calm - 5SM
01:35
Partly Cloudy
Fog And Mist
37°F / 3°C 37°F / 3°C 100% 30.09 in
(1019 mb)
Calm - 4SM
01:15
Mostly Cloudy
Fog And Mist
37°F / 3°C 36°F / 2°C 93% 30.09 in
(1019 mb)
Calm - 5SM
00:55
Partly Cloudy
37°F / 3°C 37°F / 3°C 100% 30.09 in
(1019 mb)
Calm - 7SM
00:35
Partly Cloudy
Fog And Mist
37°F / 3°C 37°F / 3°C 100% 30.09 in
(1019 mb)
Calm - 4SM
00:15
Partly Cloudy
Fog And Mist
39°F / 4°C 37°F / 3°C 93% 30.09 in
(1019 mb)
Calm - 5SM
Time Weather Temperature Dewpoint Humidity Pressure Winds Precip Visibility


Weather for websites

WeatherForYou.com, LLC is not responsible for any damages or problems caused by this service. Current weather conditions are obtained from the closest station including government and personal stations which may have varying degrees of accuracy. Weather forecasts are derived from the NOAA NDFD. Like all things, this site belongs to Jesus Christ... He just trusts me to maintain it. If you have any questions or comments email webmaster@weatherforyou.com

Copyright © 2014, WeatherForYou.com LLC. All rights reserved.